Regional Weather Roundup
Issued by NWS

Home | Current Version | Previous Version | Graphics & Text | Print | Product List | Glossary On
Versions: 1 2 3 4 5 6 7 8 9 10 11 12 13 14 15 16 17 18 19 20 21 22 23 24 25 26 27 28 29 30 31 32 33 34 35 36 37 38 39 40 41 42 43 44 45 46 47 48 49 50
000
ASUS45 KBOI 310010
RWRID
WEATHER ROUNDUP FOR IDAHO
NATIONAL WEATHER SERVICE BOISE ID
500 PM MST FRI JAN 30 2015

NOTE: "FAIR" INDICATES FEW OR NO CLOUDS BELOW 12000 FEET
WITH NO SIGNIFICANT WEATHER AND/OR OBSTRUCTIONS TO VISIBILITY

IDZ012-014-310100-
SOUTHWEST IDAHO


CITY           SKY/WX    TMP DP  RH WIND       PRES   REMARKS
BOISE          CLEAR     44  32  62 W7        30.17F
CALDWELL       CLEAR     46  30  53 W7        30.19F
MOUNTAIN HOME  CLEAR     43  33  69 NW14      30.16F
$$

IDZ016-017-310100-
SOUTHCENTRAL IDAHO


CITY           SKY/WX    TMP DP  RH WIND       PRES   REMARKS
BURLEY         CLOUDY    36  31  82 W9        30.12S WCI  29
JEROME         CLOUDY    37  33  85 W6        30.15S WCI  32
TWIN FALLS     CLOUDY    40  32  73 W8        30.14S WCI  34
$$

IDZ019>023-310100-
SOUTHEAST IDAHO


CITY           SKY/WX    TMP DP  RH WIND       PRES   REMARKS
IDAHO FALLS    CLOUDY    35  29  78 N6        30.10F WCI  30
POCATELLO      PTCLDY    39  31  72 W6        30.11F WCI  35
REXBURG        CLOUDY    34  25  69 CALM      30.10S
$$

IDZ006-010-011-018-031-032-310100-
CENTRAL IDAHO MOUNTAINS


CITY           SKY/WX    TMP DP  RH WIND       PRES   REMARKS
MCCALL         CLEAR     36  23  59 S3        30.11F
HAILEY         MOCLDY    34  27  75 SE7       30.13R WCI  28
STANLEY          N/A     24  13  62 E5        30.15S WCI  18
SALMON         CLOUDY    28  21  74 NE3       30.26S
CHALLIS        CLOUDY    27  20  75 CALM      30.22S
$$

IDZ002-004-006-007-026-310100-
NORTHERN IDAHO


CITY           SKY/WX    TMP DP  RH WIND       PRES   REMARKS
LEWISTON       CLOUDY    37  34  89 CALM      30.30F
LOWELL           N/A     37  30  75 S7        30.28S WCI  32
COEUR D`ALENE  CLOUDY    32  28  86 W5        30.27R WCI  27
MULLAN PASS    CLEAR     29  21  72 NW5       30.15F WCI  24
$$



USA.gov is the U.S. government's official web portal to all federal, state and local government web resources and services.